GW4795 Weather Reports


time (UTC)temp
F
wind
direction
speed
knots
gust
knots
rain 1hr
in
rain 24hr
in
rain mn
in
humidity
%
barometer
mb
20260508222504 61 167 1.7 9.6 0.00 0.00 0.00 54 1022.1
20260508222002 61 190 3.5 9.6 0.00 0.00 0.00 53 1022.1
20260508221512 61 144 2.6 5.2 0.00 0.00 0.00 56 1022.1
20260508221007 61 138 1.7 9.6 0.00 0.00 0.00 55 1022.1
20260508220507 61 184 2.6 12.2 0.00 0.00 0.00 55 1022.3
20260508220016 61 153 4.3 11.3 0.00 0.00 0.00 57 1022.3
20260508215505 60 144 1.7 11.3 0.00 0.00 0.00 56 1022.1
20260508215002 60 189 3.5 11.3 0.00 0.00 0.00 58 1022.2
20260508214504 60 115 2.6 5.2 0.00 0.00 0.00 58 1022.0
20260508214006 60 114 2.6 7.0 0.00 0.00 0.00 56 1022.0
20260508213503 60 101 1.7 7.0 0.00 0.00 0.00 56 1021.9
20260508213004 59 223 1.7 6.1 0.00 0.00 0.00 58 1021.9
20260508212505 59 134 2.6 7.0 0.00 0.00 0.00 57 1021.9
20260508212006 59 101 2.6 7.0 0.00 0.00 0.00 56 1021.9
20260508211518 60 154 2.6 6.1 0.00 0.00 0.00 57 1021.8
20260508211006 59 149 2.6 7.0 0.00 0.00 0.00 58 1021.9
20260508210503 59 145 1.7 7.0 0.00 0.00 0.00 58 1021.9
20260508210014 60 144 1.7 5.2 0.00 0.00 0.00 58 1021.9
20260508205505 60 151 1.7 8.7 0.00 0.00 0.00 57 1021.9
20260508205004 59 75 4.3 9.6 0.00 0.00 0.00 58 1022.0
20260508204506 59 171 5.2 14.8 0.00 0.00 0.00 57 1022.0
20260508204003 59 148 5.2 14.8 0.00 0.00 0.00 57 1021.8
20260508203503 58 104 2.6 7.8 0.00 0.00 0.00 59 1021.8
20260508203006 58 146 2.6 10.4 0.00 0.00 0.00 58 1021.9
20260508202504 58 175 4.3 11.3 0.00 0.00 0.00 58 1021.8
20260508202005 58 163 5.2 11.3 0.00 0.00 0.00 59 1021.8
20260508201509 58 152 3.5 8.7 0.00 0.00 0.00 62 1021.7
20260508201004 58 116 1.7 3.5 0.00 0.00 0.00 62 1021.6
20260508200504 58 240 0.9 6.1 0.00 0.00 0.00 63 1021.6
20260508200013 58 169 2.6 6.1 0.00 0.00 0.00 64 1021.6
20260508195503 57 141 2.6 7.8 0.00 0.00 0.00 65 1021.5
20260508195006 57 132 1.7 7.8 0.00 0.00 0.00 65 1021.6
20260508194521 57 155 1.7 7.8 0.00 0.00 0.00 64 1021.5
20260508194005 57 161 2.6 7.0 0.00 0.00 0.00 64 1021.5
20260508193508 57 165 2.6 7.0 0.00 0.00 0.00 65 1021.5
20260508193008 57 197 1.7 7.0 0.00 0.00 0.00 65 1021.5
20260508192502 56 32 2.6 6.1 0.00 0.00 0.00 64 1021.4
20260508192004 56 109 2.6 7.0 0.00 0.00 0.00 65 1021.5
20260508191509 56 127 1.7 9.6 0.00 0.00 0.00 64 1021.4
20260508191004 57 146 4.3 9.6 0.00 0.00 0.00 64 1021.5
20260508190503 57 136 1.7 5.2 0.00 0.00 0.00 65 1021.4
20260508190012 56 139 1.7 7.0 0.00 0.00 0.00 66 1021.5
20260508185505 56 121 2.6 7.0 0.00 0.00 0.00 65 1021.4
20260508185005 56 147 1.7 7.8 0.00 0.00 0.00 68 1021.4
20260508184516 56 110 2.6 9.6 0.00 0.00 0.00 65 1021.4
20260508184007 56 157 4.3 9.6 0.00 0.00 0.00 66 1021.3
20260508183507 56 188 1.7 6.1 0.00 0.00 0.00 68 1021.3
20260508183020 56 165 0.9 7.8 0.00 0.00 0.00 68 1021.2
20260508182507 55 109 2.6 7.8 0.00 0.00 0.00 69 1021.3
20260508182008 55 99 1.7 6.1 0.00 0.00 0.00 70 1021.2
20260508181506 55 161 1.7 6.1 0.00 0.00 0.00 69 1021.2
20260508181004 55 259 1.7 6.1 0.00 0.00 0.00 69 1021.1
20260508180504 55 202 0.9 7.8 0.00 0.00 0.00 69 1021.1
20260508180010 55 154 2.6 7.0 0.00 0.00 0.00 69 1021.0
20260508175504 55 114 3.5 7.0 0.00 0.00 0.00 70 1021.0
20260508175003 55 153 1.7 5.2 0.00 0.00 0.00 70 1020.9
20260508174511 54 165 0.9 4.3 0.00 0.00 0.00 72 1020.8
20260508174007 54 153 1.7 7.0 0.00 0.00 0.00 71 1020.7
20260508173505 54 142 2.6 7.0 0.00 0.00 0.00 70 1020.7
20260508173020 55 159 2.6 7.8 0.00 0.00 0.00 70 1020.6
20260508172506 55 149 2.6 9.6 0.00 0.00 0.00 71 1020.5
20260508172010 55 125 2.6 9.6 0.00 0.00 0.00 72 1020.4
20260508171527 54 135 2.6 6.1 0.00 0.00 0.00 72 1020.4
20260508171010 54 141 0.9 4.3 0.00 0.00 0.00 73 1020.4
20260508170503 53 160 2.6 6.1 0.00 0.00 0.00 73 1020.4
20260508170004 53 169 2.6 6.1 0.00 0.00 0.00 74 1020.4
20260508165502 53 198 2.6 6.1 0.00 0.00 0.00 75 1020.4
20260508165001 53 134 0.9 6.1 0.00 0.00 0.00 76 1020.3
20260508164512 53 129 1.7 7.0 0.00 0.00 0.00 75 1020.2
20260508164003 53 82 2.6 8.7 0.00 0.00 0.00 76 1020.2
20260508163505 53 171 2.6 8.7 0.00 0.00 0.00 77 1020.2
20260508163018 53 117 2.6 6.1 0.00 0.00 0.00 78 1020.1
20260508162506 52 136 1.7 6.1 0.00 0.00 0.00 79 1020.1
20260508162007 52 117 0.9 3.5 0.00 0.00 0.00 80 1020.2
20260508161521 52 134 1.7 4.3 0.00 0.00 0.00 79 1020.1
20260508161008 52 126 1.7 4.3 0.00 0.00 0.00 79 1020.0
20260508160506 52 105 0.0 3.5 0.00 0.00 0.00 80 1020.2
20260508160024 52 155 1.7 3.5 0.00 0.00 0.00 80 1020.3
20260508155514 52 165 1.7 3.5 0.00 0.00 0.00 81 1020.3
20260508155003 52 153 0.9 7.0 0.00 0.00 0.00 81 1020.3
20260508154510 52 134 2.6 7.0 0.00 0.00 0.00 81 1020.3
20260508154005 51 126 0.9 5.2 0.00 0.00 0.00 84 1020.3
20260508153504 51 102 0.9 3.5 0.00 0.00 0.00 84 1020.4
20260508153014 51 120 0.9 5.2 0.00 0.00 0.00 84 1020.2
20260508152506 51 140 0.9 6.1 0.00 0.00 0.00 85 1020.1
20260508152007 51 101 0.9 6.1 0.00 0.00 0.00 86 1020.1
20260508151529 51 92 0.0 5.2 0.00 0.00 0.00 86 1020.1
20260508151008 51 112 0.9 2.6 0.00 0.00 0.00 87 1020.1
20260508150509 50 130 0.9 2.6 0.00 0.00 0.00 88 1020.0
20260508150027 50 120 0.9 1.7 0.00 0.00 0.00 88 1019.9
20260508145508 50 132 0.9 2.6 0.00 0.00 0.00 89 1019.9
20260508145007 49 105 0.9 2.6 0.00 0.00 0.00 90 1019.8
20260508144526 49 80 0.9 1.7 0.00 0.00 0.00 90 1019.8
20260508144010 49 146 0.9 1.7 0.00 0.00 0.00 90 1019.7
20260508143503 48 141 0.9 1.7 0.00 0.00 0.00 91 1019.6
20260508143012 48 92 0.0 2.6 0.00 0.00 0.00 91 1019.3
20260508142504 48 98 0.0 2.6 0.00 0.00 0.00 91 1019.3
20260508142006 48 89 0.0 2.6 0.00 0.00 0.00 91 1019.2
20260508141519 48 140 0.0 1.7 0.00 0.00 0.00 91 1019.2
20260508141003 48 140 0.9 1.7 0.00 0.00 0.00 92 1019.1
20260508140502 47 130 0.0 3.5 0.00 0.00 0.00 92 1018.8
20260508140016 47 113 0.0 3.5 0.00 0.00 0.00 92 1018.7
20260508135503 47 96 0.9 2.6 0.00 0.00 0.00 92 1018.7
20260508135004 47 89 0.0 1.7 0.00 0.00 0.00 92 1018.7
20260508134504 47 136 0.0 1.7 0.00 0.00 0.00 92 1018.6
20260508134002 47 82 0.0 1.7 0.00 0.00 0.00 92 1018.5
20260508133505 47 80 0.0 1.7 0.00 0.00 0.00 92 1018.5
20260508133008 47 137 0.9 1.7 0.00 0.00 0.00 92 1018.4
20260508132503 47 131 0.9 1.7 0.00 0.00 0.00 92 1018.3
20260508132003 47 82 0.0 1.7 0.00 0.00 0.00 92 1018.2
20260508131506 47 87 0.0 1.7 0.00 0.00 0.00 92 1018.1
20260508131004 47 87 0.0 1.7 0.00 0.00 0.00 92 1018.1
20260508130502 47 87 0.0 1.7 0.00 0.00 0.00 92 1018.1
20260508130004 47 80 0.0 1.7 0.00 0.00 0.00 92 1018.1
20260508125503 47 80 0.0 1.7 0.00 0.00 0.00 92 1018.1
20260508125003 47 123 0.0 1.7 0.00 0.00 0.00 92 1018.0
20260508124514 47 92 0.0 1.7 0.00 0.00 0.00 91 1017.9
20260508124004 47 92 0.9 1.7 0.00 0.00 0.00 91 1017.9
20260508123503 47 92 0.0 1.7 0.00 0.00 0.00 91 1017.9
20260508123014 47 75 0.0 1.7 0.00 0.00 0.00 91 1017.9
20260508122505 47 75 0.0 1.7 0.00 0.00 0.00 91 1017.8
20260508122005 47 67 0.0 1.7 0.00 0.00 0.00 91 1017.7
20260508121509 47 83 0.0 1.7 0.00 0.00 0.00 91 1017.7
20260508121002 47 87 0.9 1.7 0.00 0.00 0.00 91 1017.6
20260508120503 47 97 0.0 1.7 0.00 0.00 0.00 91 1017.7
20260508120010 47 94 0.0 1.7 0.00 0.00 0.00 91 1017.7
20260508115504 47 98 0.0 1.7 0.00 0.00 0.00 91 1017.6
20260508115003 47 92 0.0 1.7 0.00 0.00 0.00 90 1017.6
20260508114505 47 81 0.0 1.7 0.00 0.00 0.00 90 1017.5
20260508114003 47 79 0.0 1.7 0.00 0.00 0.00 90 1017.5
20260508113504 47 100 0.0 1.7 0.00 0.00 0.00 90 1017.5
20260508113011 47 59 0.0 0.9 0.00 0.00 0.00 90 1017.4
20260508112502 47 59 0.0 0.9 0.00 0.00 0.00 90 1017.5
20260508112002 47 59 0.0 0.9 0.00 0.00 0.00 90 1017.4
20260508111509 47 59 0.0 1.7 0.00 0.00 0.00 90 1017.3
20260508111006 47 59 0.0 1.7 0.00 0.00 0.00 90 1017.2
20260508110504 47 53 0.0 0.9 0.00 0.00 0.00 91 1017.2
20260508110012 47 63 0.0 1.7 0.00 0.00 0.00 91 1017.2
20260508105504 47 63 0.0 1.7 0.00 0.00 0.00 91 1017.2
20260508105003 47 45 0.0 0.9 0.00 0.00 0.00 91 1017.2
20260508104512 47 71 0.0 1.7 0.00 0.00 0.00 91 1017.2
20260508104004 47 57 0.0 1.7 0.00 0.00 0.00 91 1017.0
20260508103503 48 57 0.9 1.7 0.00 0.00 0.00 90 1016.9
20260508103008 48 49 0.0 1.7 0.00 0.00 0.00 90 1017.1
20260508102503 48 46 0.0 1.7 0.00 0.00 0.00 90 1017.0
20260508102004 48 49 0.0 1.7 0.00 0.00 0.00 90 1016.9
20260508101514 48 42 0.0 1.7 0.00 0.00 0.00 89 1016.9
20260508101005 48 61 0.0 0.0 0.00 0.00 0.00 89 1017.0
20260508100504 48 61 0.0 0.0 0.00 0.00 0.00 89 1017.0
20260508100010 48 61 0.0 0.0 0.00 0.00 0.00 89 1017.0
20260508095504 48 61 0.0 0.0 0.00 0.00 0.00 89 1016.9
20260508095004 48 61 0.0 0.0 0.00 0.00 0.00 89 1016.9
20260508094535 48 61 0.0 0.0 0.00 0.00 0.00 89 1016.8
20260508094007 48 61 0.0 0.0 0.00 0.00 0.00 89 1016.8
20260508093504 48 61 0.0 1.7 0.00 0.00 0.00 89 1016.8
20260508093022 48 61 0.0 1.7 0.00 0.00 0.00 89 1016.7
20260508092505 48 61 0.0 1.7 0.00 0.00 0.00 89 1016.8
20260508092003 48 61 0.0 1.7 0.00 0.00 0.00 89 1016.8
20260508091504 48 61 0.0 1.7 0.00 0.00 0.00 88 1016.8
20260508091004 48 61 0.0 0.9 0.00 0.00 0.00 88 1016.9
20260508090503 49 61 0.0 0.9 0.00 0.00 0.00 88 1016.9
20260508090011 49 41 0.0 0.9 0.00 0.00 0.00 88 1016.9
20260508085506 49 41 0.0 1.7 0.00 0.00 0.00 88 1016.9
20260508085002 49 41 0.0 1.7 0.00 0.00 0.00 88 1016.8
20260508084514 49 41 0.0 1.7 0.00 0.00 0.00 88 1016.8
20260508084004 49 41 0.0 1.7 0.00 0.00 0.00 88 1016.9
20260508083505 49 41 0.0 0.0 0.00 0.00 0.00 88 1017.0
20260508083015 49 41 0.0 1.7 0.00 0.00 0.00 88 1017.0
20260508082506 49 41 0.0 1.7 0.00 0.00 0.00 88 1017.0
20260508082007 49 41 0.0 1.7 0.00 0.00 0.00 88 1017.0
20260508081526 49 59 0.0 1.7 0.00 0.00 0.00 88 1017.0
20260508081004 49 59 0.0 1.7 0.00 0.00 0.00 88 1017.1
20260508080504 49 59 0.0 1.7 0.00 0.00 0.00 88 1017.1
20260508080007 49 59 0.0 1.7 0.00 0.00 0.00 88 1017.1
20260508075504 49 59 0.0 1.7 0.00 0.00 0.00 88 1017.1
20260508075003 50 59 0.0 1.7 0.00 0.00 0.00 88 1017.1
20260508074512 50 61 0.0 0.9 0.00 0.00 0.00 88 1017.1
20260508074003 50 57 0.0 1.7 0.00 0.00 0.00 88 1017.2
20260508073507 50 75 0.0 1.7 0.00 0.00 0.00 87 1017.2
20260508073017 50 86 0.0 0.9 0.00 0.00 0.00 87 1017.2
20260508072504 50 86 0.0 1.7 0.00 0.00 0.00 86 1017.1
20260508072008 50 88 0.0 1.7 0.00 0.00 0.00 87 1017.2
20260508071524 50 83 0.0 1.7 0.00 0.00 0.00 86 1017.2
20260508071007 50 59 0.0 1.7 0.00 0.00 0.00 86 1017.1
20260508070507 51 74 0.0 1.7 0.00 0.00 0.00 85 1017.2
20260508070018 51 89 0.0 1.7 0.00 0.00 0.00 85 1017.2
20260508065505 51 94 0.0 1.7 0.00 0.00 0.00 84 1017.2
20260508065003 51 111 0.0 1.7 0.00 0.00 0.00 84 1017.2
20260508064509 51 5 0.0 0.9 0.00 0.00 0.00 84 1017.2
20260508064002 51 5 0.0 0.0 0.00 0.00 0.00 84 1017.2
20260508063506 51 5 0.0 1.7 0.00 0.00 0.00 83 1017.2
20260508063018 52 5 0.0 1.7 0.00 0.00 0.00 83 1017.2
20260508062507 52 5 0.0 0.0 0.00 0.00 0.00 83 1017.1
20260508062009 52 5 0.0 1.7 0.00 0.00 0.00 82 1017.1
20260508061522 52 5 0.0 1.7 0.00 0.00 0.00 82 1017.1
20260508061006 52 360 0.0 1.7 0.00 0.00 0.00 82 1017.1
20260508060506 53 360 0.0 0.0 0.00 0.00 0.00 82 1017.2
20260508060025 53 360 0.0 1.7 0.00 0.00 0.00 82 1017.1
20260508055506 53 360 0.0 1.7 0.00 0.00 0.00 82 1017.1
20260508055009 53 360 0.0 1.7 0.00 0.00 0.00 81 1017.2
20260508054528 53 360 0.0 1.7 0.00 0.00 0.00 81 1017.1
20260508054003 53 360 0.0 0.9 0.00 0.00 0.00 80 1017.2
20260508053502 54 360 0.0 0.9 0.00 0.00 0.00 80 1017.2
20260508053016 54 19 0.0 1.7 0.00 0.00 0.00 80 1017.3
20260508052506 54 19 0.0 1.7 0.00 0.00 0.00 80 1017.2
20260508052007 54 19 0.0 1.7 0.00 0.00 0.00 79 1017.2
20260508051519 55 344 0.0 1.7 0.00 0.00 0.00 79 1017.3
20260508051003 55 344 0.0 0.9 0.00 0.00 0.00 79 1017.3
20260508050501 55 350 0.0 1.7 0.00 0.00 0.00 79 1017.2
20260508050003 55 350 0.0 1.7 0.00 0.00 0.00 79 1017.3
20260508045502 56 350 0.0 1.7 0.00 0.00 0.00 79 1017.3
20260508045003 56 257 0.0 1.7 0.00 0.00 0.00 78 1017.5
20260508044506 56 228 0.0 1.7 0.00 0.00 0.00 77 1017.6
20260508044003 56 228 0.0 1.7 0.00 0.00 0.00 77 1017.6
20260508043502 57 228 0.0 1.7 0.00 0.00 0.00 76 1017.5
20260508043015 57 224 0.0 1.7 0.00 0.00 0.00 76 1017.5
20260508042504 57 224 0.0 1.7 0.00 0.00 0.00 76 1017.5
20260508042007 58 284 0.0 1.7 0.00 0.00 0.00 76 1017.5
20260508041517 58 296 0.0 0.9 0.00 0.00 0.00 75 1017.4
20260508041002 58 315 0.9 0.9 0.00 0.00 0.00 73 1017.4
20260508040503 58 328 0.9 0.9 0.00 0.00 0.00 72 1017.3
20260508040006 59 316 0.9 0.9 0.00 0.00 0.00 71 1017.4
20260508035503 59 352 0.0 0.9 0.00 0.00 0.00 70 1017.3
20260508035006 59 352 0.9 0.9 0.00 0.00 0.00 70 1017.3
20260508034507 60 352 0.0 1.7 0.00 0.00 0.00 69 1017.3
20260508034005 60 352 0.0 1.7 0.00 0.00 0.00 69 1017.3
20260508033504 60 360 0.0 1.7 0.00 0.00 0.00 69 1017.3
20260508033009 60 346 0.9 1.7 0.00 0.00 0.00 69 1017.3
20260508032505 61 336 0.0 1.7 0.00 0.00 0.00 69 1017.3
20260508032004 61 317 0.0 1.7 0.00 0.00 0.00 68 1017.3
20260508031514 61 317 0.0 1.7 0.00 0.00 0.00 67 1017.4
20260508031006 61 310 0.9 1.7 0.00 0.00 0.00 67 1017.4
20260508030508 61 274 0.9 1.7 0.00 0.00 0.00 66 1017.5
20260508030004 61 286 0.9 1.7 0.00 0.00 0.00 66 1017.5
20260508025504 61 193 0.0 1.7 0.00 0.00 0.00 66 1017.5
20260508025003 62 193 0.0 1.7 0.00 0.00 0.00 65 1017.5
20260508024503 62 186 0.0 1.7 0.00 0.00 0.00 64 1017.5
20260508024004 62 192 0.0 1.7 0.00 0.00 0.00 63 1017.6
20260508023504 62 200 0.0 2.6 0.00 0.00 0.00 62 1017.6
20260508023006 62 202 0.0 2.6 0.00 0.00 0.00 62 1017.5
20260508022503 63 185 0.0 1.7 0.00 0.00 0.00 62 1017.7
20260508022007 63 88 0.0 2.6 0.00 0.00 0.00 61 1017.7
20260508021518 63 114 0.9 2.6 0.00 0.00 0.00 61 1017.7
20260508021008 63 161 0.9 1.7 0.00 0.00 0.00 61 1017.7
20260508020503 63 360 0.0 0.9 0.00 0.00 0.00 63 1017.7
20260508020016 63 274 0.0 2.6 0.00 0.00 0.00 61 1017.7
20260508015507 63 307 0.0 2.6 0.00 0.00 0.00 62 1017.7
20260508015008 63 360 0.9 2.6 0.00 0.00 0.00 63 1017.7
20260508014504 63 55 0.9 1.7 0.00 0.00 0.00 61 1017.7
20260508014004 63 219 0.0 1.7 0.00 0.00 0.00 61 1017.7
20260508013503 63 183 0.9 2.6 0.00 0.00 0.00 61 1017.7
20260508013004 63 98 1.7 1.7 0.00 0.00 0.00 62 1017.8
20260508012505 63 352 0.0 1.7 0.00 0.00 0.00 63 1017.9
20260508012003 63 172 0.9 3.5 0.00 0.00 0.00 62 1018.0
20260508011515 63 152 1.7 3.5 0.00 0.00 0.00 62 1018.1
20260508011002 63 223 0.9 2.6 0.00 0.00 0.00 62 1018.1
20260508010505 63 178 0.9 2.6 0.00 0.00 0.00 61 1018.2
20260508010020 63 154 0.0 1.7 0.00 0.00 0.00 61 1018.2
20260508005507 64 144 0.0 1.7 0.00 0.00 0.00 60 1018.3
20260508005008 64 147 0.0 1.7 0.00 0.00 0.00 61 1018.3
20260508004521 64 159 0.0 1.7 0.00 0.00 0.00 60 1018.2
20260508004008 64 185 0.9 2.6 0.00 0.00 0.00 61 1018.2
20260508003507 64 5 0.9 3.5 0.00 0.00 0.00 61 1018.2
20260508003005 64 184 0.9 3.5 0.00 0.00 0.00 61 1018.3
20260508002503 64 201 0.9 3.5 0.00 0.00 0.00 62 1018.3
20260508002004 64 319 0.9 3.5 0.00 0.00 0.00 64 1018.3
20260508001531 63 246 0.9 2.6 0.00 0.00 0.00 63 1018.3
20260508001006 63 177 0.9 3.5 0.00 0.00 0.00 63 1018.3
20260508000503 64 190 1.7 3.5 0.00 0.00 0.00 62 1018.3
20260508000013 64 126 0.9 3.5 0.00 0.00 0.00 61 1018.2
20260507235506 65 132 0.9 3.5 0.00 0.00 0.00 61 1018.2
20260507235007 65 223 1.7 6.1 0.00 0.00 0.00 61 1018.3
20260507234518 65 201 0.9 6.1 0.00 0.00 0.00 60 1018.3
20260507234006 65 241 1.7 3.5 0.00 0.00 0.00 60 1018.3
20260507233507 65 258 0.9 2.6 0.00 0.00 0.00 59 1018.3
20260507233026 66 213 1.7 2.6 0.00 0.00 0.00 63 1018.3
20260507232508 66 219 1.7 2.6 0.00 0.00 0.00 63 1018.3
20260507232005 65 207 0.9 3.5 0.00 0.00 0.00 62 1018.4
20260507231511 65 184 1.7 4.3 0.00 0.00 0.00 61 1018.4
20260507231004 66 155 1.7 4.3 0.00 0.00 0.00 59 1018.5
20260507230506 66 304 2.6 3.5 0.00 0.00 0.00 61 1018.6
20260507230025 67 123 0.9 3.5 0.00 0.00 0.00 58 1018.8
20260507225506 67 313 0.9 5.2 0.00 0.00 0.00 60 1018.8
20260507225004 67 5 1.7 5.2 0.00 0.00 0.00 61 1018.9
20260507224526 66 288 1.7 3.5 0.00 0.00 0.00 63 1018.9
20260507224007 66 15 0.9 5.2 0.00 0.00 0.00 61 1019.0
20260507223507 66 351 1.7 5.2 0.00 0.00 0.00 61 1019.1
20260507223024 66 168 0.9 3.5 0.00 0.00 0.00 64 1019.2